Horseshoe Bay, TX

10:56 PM MDT on October 16, 2017 (GMT -0600)
Horseshoe Bay

Weather History for KDZB - May, 2014

Change the Weather History Date:

Monday, May 12, 2014

  Actual Average (KBMQ) Record (KBMQ)
Temperature  
Mean Temperature 72 °F -  
Max Temperature 83 °F 82 °F 91 °F (2000)
Min Temperature 60 °F 62 °F 50 °F (2006)
Cooling Degree Days 6    
Growing Degree Days 22 (Base 50)    
Moisture  
Dew Point 68 °F    
Average Humidity 80    
Maximum Humidity 100    
Minimum Humidity 62    
Precipitation  
Precipitation 0.70 in - - ()
Sea Level Pressure  
Sea Level Pressure 29.83 in    
Wind  
Wind Speed 9 mph (SSE)    
Max Wind Speed 18 mph    
Max Gust Speed 26 mph    
Visibility 8 miles    
Events Rain , Thunderstorm    
Averages and records for this station are not official NWS values.
T = Trace of Precipitation, MM = Missing Value Source: NWS Daily Summary

Daily Weather History Graph

Daily Weather History Graph

Search for Another Location

Airport or City:

Trip Planner

Search our weather history database for the weather conditions in past years. The results will help you decide how hot, cold, wet, or windy it might be!

Date:

Astronomy

May. 12, 2014 Rise Set
Actual Time 5:40 AM MDT 7:19 PM MDT
Civil Twilight 5:14 AM MDT 7:45 PM MDT
Nautical Twilight 4:43 AM MDT 8:16 PM MDT
Astronomical Twilight 4:10 AM MDT 8:49 PM MDT
Moon 5:26 PM MDT (5/12) 4:10 AM MDT (5/12)
Length of Visible Light 14h 30m
Length of Day
13h 38m
Waxing Gibbous, 95% of the Moon is Illuminated
May 12
Waxing Gibbous
May 14
Full
May 21
Last Quarter
May 28
New
Jun 5
First Quarter

Hourly Weather History & Observations

Time (MDT) Temp. Heat Index Dew Point Humidity Pressure Visibility Wind Dir Wind Speed Gust Speed Precip Events Conditions
12:15 AM 75.2 °F - 67.3 °F 76% 29.77 in 10.0 mi SE 6.9 mph - N/A   Overcast
12:35 AM 75.2 °F - 67.3 °F 76% 29.77 in 10.0 mi SE 6.9 mph 17.3 mph N/A   Overcast
12:55 AM 75.2 °F - 67.5 °F 77% 29.77 in 10.0 mi SSE 11.5 mph 19.6 mph N/A   Overcast
1:15 AM 75.6 °F - 68.0 °F 77% 29.77 in 10.0 mi SSE 10.4 mph 19.6 mph N/A   Overcast
1:35 AM 75.6 °F - 68.0 °F 77% 29.76 in 7.0 mi SSE 9.2 mph 16.1 mph N/A   Overcast
1:55 AM 75.7 °F - 68.0 °F 77% 29.76 in 7.0 mi SSE 8.1 mph 20.7 mph N/A   Overcast
2:15 AM 76.1 °F - 68.2 °F 76% 29.76 in 7.0 mi SSE 6.9 mph 18.4 mph N/A   Overcast
2:35 AM 76.1 °F - 68.2 °F 76% 29.76 in 7.0 mi South 10.4 mph 16.1 mph N/A   Overcast
2:55 AM 76.3 °F - 68.2 °F 76% 29.76 in 7.0 mi South 10.4 mph 17.3 mph N/A   Overcast
3:15 AM 76.1 °F - 68.4 °F 77% 29.76 in 7.0 mi SSE 11.5 mph 16.1 mph N/A   Overcast
3:35 AM 76.1 °F - 68.5 °F 77% 29.76 in 7.0 mi SSE 10.4 mph 20.7 mph N/A   Overcast
3:55 AM 76.1 °F - 68.7 °F 78% 29.76 in 7.0 mi SSE 5.8 mph - N/A   Overcast
4:15 AM 76.1 °F - 68.9 °F 78% 29.76 in 7.0 mi SE 6.9 mph 17.3 mph N/A   Overcast
4:35 AM 76.1 °F - 68.9 °F 78% 29.75 in 7.0 mi SSE 8.1 mph - N/A   Overcast
4:55 AM 76.1 °F - 68.9 °F 78% 29.75 in 10.0 mi SSE 10.4 mph 20.7 mph N/A   Overcast
5:15 AM 76.3 °F - 68.9 °F 78% 29.75 in 10.0 mi SSE 13.8 mph 19.6 mph N/A   Overcast
5:35 AM 76.5 °F - 68.9 °F 77% 29.75 in 10.0 mi SSE 8.1 mph 21.9 mph N/A   Overcast
5:55 AM 76.1 °F - 68.9 °F 78% 29.75 in 10.0 mi SSE 11.5 mph 16.1 mph N/A   Overcast
6:15 AM 76.1 °F - 68.9 °F 78% 29.75 in 7.0 mi SSE 9.2 mph 17.3 mph N/A   Mostly Cloudy
6:35 AM 76.5 °F - 68.9 °F 77% 29.76 in 7.0 mi SSE 10.4 mph 18.4 mph N/A   Overcast
6:55 AM 76.8 °F - 68.7 °F 76% 29.77 in 7.0 mi SSE 9.2 mph 18.4 mph N/A   Overcast
7:15 AM 77.0 °F - 68.7 °F 75% 29.79 in 7.0 mi SSE 10.4 mph 18.4 mph N/A   Overcast
7:35 AM 77.0 °F - 68.5 °F 75% 29.80 in 7.0 mi South 6.9 mph - N/A   Overcast
7:55 AM 76.1 °F - 69.3 °F 79% 29.84 in 5.0 mi Calm Calm - N/A Rain Light Rain
8:15 AM 75.9 °F - 70.0 °F 82% 29.85 in 3.0 mi SW 4.6 mph - N/A Rain Heavy Rain
8:35 AM 74.5 °F - 74.3 °F 99% 29.85 in 1.2 mi Calm Calm - 0.06 in Rain , Thunderstorm Heavy Thunderstorms and Rain
8:55 AM 74.8 °F - 74.8 °F 100% 29.85 in 1.8 mi SSE 4.6 mph - 0.12 in Rain Light Rain
9:15 AM 76.8 °F - 76.8 °F 100% 29.83 in 4.0 mi South 10.4 mph - N/A   Scattered Clouds
9:35 AM 76.5 °F - 74.3 °F 93% 29.83 in 4.0 mi South 4.6 mph 18.4 mph N/A   Scattered Clouds
9:55 AM 77.4 °F - 73.8 °F 89% 29.83 in 5.0 mi South 5.8 mph 17.3 mph N/A   Mostly Cloudy
10:15 AM 78.3 °F - 73.4 °F 85% 29.84 in 7.0 mi SSE 8.1 mph 16.1 mph N/A   Mostly Cloudy
10:35 AM 81.7 °F 86.3 °F 72.0 °F 72% 29.85 in 7.0 mi South 10.4 mph 17.3 mph N/A   Overcast
10:55 AM 80.8 °F 84.7 °F 71.6 °F 73% 29.85 in 7.0 mi South 10.4 mph 16.1 mph N/A   Overcast
11:15 AM 82.6 °F 87.1 °F 70.9 °F 68% 29.86 in 10.0 mi South 15.0 mph 20.7 mph N/A   Overcast
11:35 AM 82.6 °F 87.1 °F 71.2 °F 68% 29.87 in 10.0 mi SSE 10.4 mph 16.1 mph N/A   Overcast
11:55 AM 81.1 °F 85.2 °F 71.2 °F 72% 29.87 in 10.0 mi SSE 12.7 mph 16.1 mph N/A   Overcast
12:15 PM 81.7 °F 86.0 °F 71.4 °F 71% 29.87 in 10.0 mi South 10.4 mph 18.4 mph N/A   Mostly Cloudy
12:35 PM 80.6 °F 84.2 °F 70.9 °F 72% 29.86 in 10.0 mi SSE 9.2 mph 19.6 mph N/A   Mostly Cloudy
12:55 PM 80.1 °F 83.4 °F 70.9 °F 73% 29.85 in 7.0 mi SSE 11.5 mph 20.7 mph N/A   Mostly Cloudy
1:15 PM 82.2 °F 86.9 °F 71.4 °F 70% 29.84 in 10.0 mi SSE 12.7 mph 21.9 mph N/A   Scattered Clouds
1:35 PM 82.6 °F 87.1 °F 71.1 °F 68% 29.83 in 10.0 mi South 11.5 mph 21.9 mph N/A   Scattered Clouds
1:55 PM 82.4 °F 86.3 °F 70.2 °F 66% 29.82 in 10.0 mi South 13.8 mph 23.0 mph N/A   Scattered Clouds
2:15 PM 82.8 °F 86.7 °F 70.0 °F 65% 29.81 in 10.0 mi SSE 15.0 mph 23.0 mph N/A   Mostly Cloudy
2:35 PM 83.3 °F 87.4 °F 70.0 °F 64% 29.80 in 10.0 mi SSE 15.0 mph 21.9 mph N/A   Mostly Cloudy
2:55 PM 83.3 °F 87.4 °F 69.8 °F 64% 29.79 in 10.0 mi SSE 13.8 mph 21.9 mph N/A   Mostly Cloudy
3:15 PM 83.7 °F 87.7 °F 69.8 °F 63% 29.78 in 10.0 mi South 10.4 mph 21.9 mph N/A Thunderstorm Mostly Cloudy
3:35 PM 83.5 °F 87.2 °F 69.4 °F 62% 29.78 in 10.0 mi SSE 15.0 mph 20.7 mph N/A   Mostly Cloudy
3:55 PM 83.5 °F 87.2 °F 69.4 °F 62% 29.77 in 10.0 mi SSE 12.7 mph 20.7 mph N/A   Scattered Clouds
4:15 PM 82.6 °F 86.1 °F 69.1 °F 64% 29.77 in 10.0 mi SSE 10.4 mph 24.2 mph N/A   Scattered Clouds
4:35 PM 82.0 °F 85.3 °F 68.9 °F 64% 29.78 in 10.0 mi SSE 9.2 mph 18.4 mph N/A   Mostly Cloudy
4:55 PM 81.5 °F 84.8 °F 69.3 °F 66% 29.78 in 10.0 mi SSE 9.2 mph 18.4 mph N/A Thunderstorm Overcast
5:15 PM 80.8 °F 83.8 °F 69.1 °F 67% 29.78 in 10.0 mi Calm Calm - N/A Thunderstorm Mostly Cloudy
5:35 PM 80.2 °F 83.2 °F 69.4 °F 69% 29.82 in 10.0 mi NE 5.8 mph - N/A   Mostly Cloudy
5:55 PM 73.4 °F - 60.3 °F 63% 29.85 in 10.0 mi NNW 18.4 mph 24.2 mph N/A Thunderstorm Overcast
6:15 PM 70.3 °F - 60.8 °F 72% 29.85 in 10.0 mi NNW 12.7 mph 21.9 mph N/A Rain , Thunderstorm Light Thunderstorms and Rain
6:35 PM 68.2 °F - 61.7 °F 80% 29.86 in 10.0 mi Calm Calm - N/A Rain , Thunderstorm Light Thunderstorms and Rain
6:55 PM 68.0 °F - 63.3 °F 85% 29.88 in 10.0 mi SSE 4.6 mph - 0.01 in Rain , Thunderstorm Light Thunderstorms and Rain
7:15 PM 67.3 °F - 66.4 °F 97% 29.87 in 7.0 mi North 5.8 mph - 0.04 in Rain , Thunderstorm Light Thunderstorms and Rain
7:35 PM 67.1 °F - 67.1 °F 100% 29.85 in 5.0 mi NNE 4.6 mph - 0.12 in Rain , Thunderstorm Rain
7:55 PM 66.9 °F - 66.9 °F 100% 29.83 in 10.0 mi NE 4.6 mph - 0.13 in Rain , Thunderstorm Light Thunderstorms and Rain
8:15 PM 66.0 °F - 66.0 °F 100% 29.88 in 7.0 mi NNW 9.2 mph - 0.05 in Rain , Thunderstorm Heavy Thunderstorms and Rain
8:35 PM 66.0 °F - 66.0 °F 100% 29.90 in 7.0 mi NNW 10.4 mph 17.3 mph 0.17 in Rain , Thunderstorm Light Thunderstorms and Rain
8:55 PM 63.5 °F - 63.5 °F 100% 29.94 in 10.0 mi North 4.6 mph 21.9 mph 0.17 in Rain , Thunderstorm Light Thunderstorms and Rain
9:15 PM 62.6 °F - 62.6 °F 100% 29.98 in 10.0 mi NW 11.5 mph 20.7 mph 0.01 in Rain , Thunderstorm Rain
9:35 PM 61.7 °F - 61.7 °F 100% 29.96 in 10.0 mi NNW 11.5 mph 18.4 mph 0.06 in Rain , Thunderstorm Thunderstorms and Rain
9:55 PM 61.2 °F - 61.2 °F 100% 29.95 in 7.0 mi North 10.4 mph 16.1 mph 0.10 in Rain , Thunderstorm Thunderstorms and Rain
10:15 PM 61.3 °F - 61.3 °F 100% 29.96 in 5.0 mi NNE 3.5 mph - 0.03 in Rain , Thunderstorm Thunderstorms and Rain
10:35 PM 61.2 °F - 61.2 °F 100% 29.92 in 7.0 mi NE 12.7 mph 17.3 mph 0.09 in Rain , Thunderstorm Thunderstorms and Rain
10:55 PM 60.8 °F - 60.8 °F 100% 29.90 in 5.0 mi ENE 13.8 mph 26.5 mph 0.15 in Rain , Thunderstorm Thunderstorms and Rain
11:15 PM 61.0 °F - 61.0 °F 100% 29.97 in 10.0 mi NW 11.5 mph 18.4 mph N/A Rain , Thunderstorm Light Thunderstorms and Rain
11:35 PM 60.8 °F - 60.8 °F 100% 29.97 in 10.0 mi NNW 10.4 mph - 0.01 in Rain Light Rain
11:55 PM 60.1 °F - 60.1 °F 100% 29.98 in 10.0 mi North 10.4 mph 17.3 mph 0.02 in Rain , Thunderstorm Light Thunderstorms and Rain